Time,TemperatureF,DewpointF,PressureIn,WindDirection,WindDirectionDegrees,WindSpeedMPH,WindSpeedGustMPH,Humidity,HourlyPrecipIn,Conditions,Clouds,dailyrainin,SoftwareType,DateUTC
2013-02-26 00:00:00,36.4,29.9,29.77,NE,50,21.9,21.9,77,0.00,CLR,,0.00,WeatherDisplay:10.37,2013-02-26 06:00:00,
2013-02-26 00:05:00,36.3,29.8,29.77,ENE,78,25.3,25.3,77,0.00,CLR,,0.00,WeatherDisplay:10.37,2013-02-26 06:05:00,
2013-02-26 00:10:00,36.2,29.7,29.76,ENE,67,13.8,13.8,77,0.00,CLR,,0.00,WeatherDisplay:10.37,2013-02-26 06:10:00,
2013-02-26 00:15:00,36.3,29.8,29.76,East,84,17.3,17.3,77,0.00,CLR,,0.00,WeatherDisplay:10.37,2013-02-26 06:15:00,
2013-02-26 00:20:00,36.3,29.8,29.75,NE,44,23.0,23.0,77,0.00,CLR,,0.00,WeatherDisplay:10.37,2013-02-26 06:20:00,
2013-02-26 00:25:00,36.4,29.9,29.74,NE,39,31.0,31.0,77,0.00,CLR,,0.00,WeatherDisplay:10.37,2013-02-26 06:25:00,
2013-02-26 00:30:00,36.4,29.9,29.74,NE,50,26.5,26.5,77,0.00,CLR,,0.00,WeatherDisplay:10.37,2013-02-26 06:30:00,
2013-02-26 00:35:00,36.5,29.7,29.74,ENE,59,21.0,21.0,76,0.00,CLR,,0.00,WeatherDisplay:10.37,2013-02-26 06:35:00,
2013-02-26 00:40:00,36.5,29.7,29.74,ENE,64,23.0,23.0,76,0.00,CLR,,0.00,WeatherDisplay:10.37,2013-02-26 06:40:00,
2013-02-26 00:45:00,36.6,29.7,29.73,NE,53,15.0,15.0,76,0.00,CLR,,0.00,WeatherDisplay:10.37,2013-02-26 06:45:00,
2013-02-26 00:50:00,36.6,29.4,29.73,East,94,18.4,18.4,75,0.00,CLR,,0.00,WeatherDisplay:10.37,2013-02-26 06:50:00,
2013-02-26 00:55:00,36.7,29.5,29.73,ENE,65,26.5,26.5,75,0.00,CLR,,0.00,WeatherDisplay:10.37,2013-02-26 06:55:00,
2013-02-26 01:00:00,36.6,29.4,29.73,NE,54,19.6,19.6,75,0.00,CLR,,0.00,WeatherDisplay:10.37,2013-02-26 07:00:00,
2013-02-26 01:05:00,36.6,29.4,29.73,NE,40,20.7,20.7,75,0.00,CLR,,0.00,WeatherDisplay:10.37,2013-02-26 07:05:00,
2013-02-26 01:10:00,36.6,29.4,29.72,NE,53,25.3,25.3,75,0.00,CLR,,0.00,WeatherDisplay:10.37,2013-02-26 07:10:00,
2013-02-26 01:15:00,36.6,29.4,29.72,NE,55,16.1,16.1,75,0.00,CLR,,0.00,WeatherDisplay:10.37,2013-02-26 07:15:00,
2013-02-26 01:20:00,36.5,29.3,29.71,ENE,59,20.7,20.7,75,0.00,CLR,,0.00,WeatherDisplay:10.37,2013-02-26 07:20:00,
2013-02-26 01:25:00,36.5,29.3,29.70,ENE,69,25.3,25.3,75,0.00,CLR,,0.00,WeatherDisplay:10.37,2013-02-26 07:25:00,
2013-02-26 01:30:00,36.5,29.3,29.70,East,96,24.2,24.2,75,0.00,CLR,,0.00,WeatherDisplay:10.37,2013-02-26 07:30:00,
2013-02-26 01:35:00,36.5,29.3,29.69,NE,56,26.5,26.5,75,0.00,CLR,,0.00,WeatherDisplay:10.37,2013-02-26 07:35:00,
2013-02-26 01:40:00,36.6,29.1,29.69,NE,40,21.9,21.9,74,0.00,CLR,,0.00,WeatherDisplay:10.37,2013-02-26 07:40:00,
2013-02-26 01:45:00,36.6,29.4,29.69,ENE,69,22.0,22.0,75,0.00,CLR,,0.00,WeatherDisplay:10.37,2013-02-26 07:45:00,
2013-02-26 01:50:00,36.6,29.1,29.68,ENE,59,28.8,28.8,74,0.00,CLR,,0.00,WeatherDisplay:10.37,2013-02-26 07:50:00,
2013-02-26 01:55:00,36.6,29.1,29.67,NE,35,21.9,21.9,74,0.00,CLR,,0.00,WeatherDisplay:10.37,2013-02-26 07:55:00,
2013-02-26 02:00:00,36.6,29.1,29.66,NE,46,20.7,20.7,74,0.00,CLR,,0.00,WeatherDisplay:10.37,2013-02-26 08:00:00,
2013-02-26 02:05:00,36.6,29.1,29.66,NNE,32,18.4,18.4,74,0.00,CLR,,0.00,WeatherDisplay:10.37,2013-02-26 08:05:00,
2013-02-26 02:10:00,36.6,28.8,29.66,ENE,68,32.2,32.2,73,0.00,CLR,,0.00,WeatherDisplay:10.37,2013-02-26 08:10:00,
2013-02-26 02:15:00,36.4,28.9,29.66,ENE,73,25.3,25.3,74,0.00,CLR,,0.00,WeatherDisplay:10.37,2013-02-26 08:15:00,
2013-02-26 02:20:00,36.3,29.1,29.65,ENE,67,31.1,31.1,75,0.00,CLR,,0.00,WeatherDisplay:10.37,2013-02-26 08:20:00,
2013-02-26 02:25:00,36.1,29.3,29.65,ENE,72,33.0,33.0,76,0.00,CLR,,0.00,WeatherDisplay:10.37,2013-02-26 08:25:00,
2013-02-26 02:30:00,36.0,29.2,29.65,ENE,73,25.3,25.3,76,0.00,CLR,,0.00,WeatherDisplay:10.37,2013-02-26 08:30:00,
2013-02-26 02:35:00,35.9,29.4,29.65,ENE,72,32.2,32.2,77,0.00,CLR,,0.00,WeatherDisplay:10.37,2013-02-26 08:35:00,
2013-02-26 02:40:00,35.9,29.4,29.65,East,83,25.0,25.0,77,0.00,CLR,,0.00,WeatherDisplay:10.37,2013-02-26 08:40:00,
2013-02-26 02:45:00,35.8,29.3,29.65,NE,44,26.5,26.5,77,0.00,CLR,,0.00,WeatherDisplay:10.37,2013-02-26 08:45:00,
2013-02-26 02:50:00,35.7,29.5,29.64,ENE,57,20.0,20.0,78,0.00,CLR,,0.00,WeatherDisplay:10.37,2013-02-26 08:50:00,
2013-02-26 02:55:00,35.6,29.7,29.62,NE,54,17.3,17.3,79,0.00,CLR,,0.00,WeatherDisplay:10.37,2013-02-26 08:55:00,
2013-02-26 03:00:00,35.5,29.3,29.62,ENE,57,19.6,19.6,78,0.00,CLR,,0.00,WeatherDisplay:10.37,2013-02-26 09:00:00,
2013-02-26 03:05:00,35.4,29.2,29.61,ENE,57,21.9,21.9,78,0.00,CLR,,0.00,WeatherDisplay:10.37,2013-02-26 09:05:00,
2013-02-26 03:10:00,35.4,29.2,29.60,NE,36,29.9,29.9,78,0.00,CLR,,0.00,WeatherDisplay:10.37,2013-02-26 09:10:00,
2013-02-26 03:15:00,35.4,29.2,29.60,ENE,64,31.1,31.1,78,0.00,CLR,,0.00,WeatherDisplay:10.37,2013-02-26 09:15:00,
2013-02-26 03:20:00,35.4,29.2,29.59,NE,39,27.6,27.6,78,0.00,CLR,,0.00,WeatherDisplay:10.37,2013-02-26 09:20:00,
2013-02-26 03:25:00,35.4,28.9,29.57,ENE,61,43.7,43.7,77,0.00,,,0.00,WeatherDisplay:10.37,2013-02-26 09:25:00,
2013-02-26 03:30:00,35.3,28.8,29.56,NE,49,34.5,34.5,77,0.00,CLR,,0.00,WeatherDisplay:10.37,2013-02-26 09:30:00,
2013-02-26 03:35:00,35.3,28.8,29.56,NE,49,26.5,26.5,77,0.00,CLR,,0.00,WeatherDisplay:10.37,2013-02-26 09:35:00,
2013-02-26 03:40:00,35.4,28.9,29.55,ENE,71,36.8,36.8,77,0.00,CLR,,0.00,WeatherDisplay:10.37,2013-02-26 09:40:00,
2013-02-26 03:45:00,35.4,28.6,29.55,NE,36,26.5,26.5,76,0.00,CLR,,0.00,WeatherDisplay:10.37,2013-02-26 09:45:00,
2013-02-26 03:50:00,35.5,29.0,29.55,ENE,57,20.7,20.7,77,0.00,CLR,,0.00,WeatherDisplay:10.37,2013-02-26 09:50:00,
2013-02-26 03:55:00,35.5,28.7,29.55,ENE,78,21.9,21.9,76,0.00,CLR,,0.00,WeatherDisplay:10.37,2013-02-26 09:55:00,
2013-02-26 04:00:00,35.5,28.7,29.55,East,90,28.8,28.8,76,0.00,CLR,,0.00,WeatherDisplay:10.37,2013-02-26 10:00:00,
2013-02-26 04:05:00,35.5,28.7,29.55,ENE,73,31.1,31.1,76,0.00,CLR,,0.00,WeatherDisplay:10.37,2013-02-26 10:05:00,
2013-02-26 04:10:00,35.5,28.7,29.57,ENE,67,25.0,25.0,76,0.00,CLR,,0.00,WeatherDisplay:10.37,2013-02-26 10:10:00,
2013-02-26 04:15:00,35.4,28.6,29.57,ENE,57,26.5,26.5,76,0.00,CLR,,0.00,WeatherDisplay:10.37,2013-02-26 10:15:00,
2013-02-26 04:20:00,35.3,28.8,29.58,East,82,30.0,30.0,77,0.00,CLR,,0.00,WeatherDisplay:10.37,2013-02-26 10:20:00,
2013-02-26 04:25:00,35.1,28.9,29.59,ENE,70,26.5,26.5,78,0.00,CLR,,0.00,WeatherDisplay:10.37,2013-02-26 10:25:00,
2013-02-26 04:30:00,34.9,29.0,29.59,ENE,69,24.2,24.2,79,0.00,CLR,,0.01,WeatherDisplay:10.37,2013-02-26 10:30:00,
2013-02-26 04:35:00,34.7,29.2,29.60,East,84,23.0,23.0,80,0.01,RA,,0.01,WeatherDisplay:10.37,2013-02-26 10:35:00,
2013-02-26 04:40:00,34.4,29.8,29.59,ENE,73,24.2,24.2,83,0.02,RA,,0.02,WeatherDisplay:10.37,2013-02-26 10:40:00,
2013-02-26 04:45:00,34.1,29.8,29.59,ENE,73,23.0,23.0,84,0.02,RA,,0.02,WeatherDisplay:10.37,2013-02-26 10:45:00,
2013-02-26 04:50:00,34.0,29.7,29.58,ENE,58,19.6,19.6,84,0.02,,,0.02,WeatherDisplay:10.37,2013-02-26 10:50:00,
2013-02-26 04:55:00,33.9,29.6,29.58,ENE,70,25.3,25.3,84,0.03,RA,,0.03,WeatherDisplay:10.37,2013-02-26 10:55:00,
2013-02-26 05:00:00,33.8,29.8,29.58,ENE,74,20.0,20.0,85,0.04,RA,,0.04,WeatherDisplay:10.37,2013-02-26 11:00:00,
2013-02-26 05:05:00,33.6,29.9,29.57,ENE,66,15.0,15.0,86,0.05,RA,,0.05,WeatherDisplay:10.37,2013-02-26 11:05:00,
2013-02-26 05:10:00,33.6,29.9,29.56,ENE,73,17.3,17.3,86,0.07,RA,,0.07,WeatherDisplay:10.37,2013-02-26 11:10:00,
2013-02-26 05:15:00,33.6,30.1,29.56,East,80,23.0,23.0,87,0.08,RA,,0.08,WeatherDisplay:10.37,2013-02-26 11:15:00,
2013-02-26 05:20:00,33.5,30.0,29.56,ENE,76,23.0,23.0,87,0.08,RA,,0.08,WeatherDisplay:10.37,2013-02-26 11:20:00,
2013-02-26 05:25:00,33.5,30.3,29.55,ENE,72,17.0,25.0,88,0.00,RA,,0.09,WeatherDisplay:10.37,2013-02-26 11:25:00,
2013-02-26 05:30:00,33.5,30.3,29.55,NNE,30,23.0,23.0,88,0.10,RA,,0.11,WeatherDisplay:10.37,2013-02-26 11:30:00,
2013-02-26 05:35:00,33.5,30.3,29.55,East,81,27.6,27.6,88,0.11,RA,,0.12,WeatherDisplay:10.37,2013-02-26 11:35:00,
2013-02-26 05:40:00,33.5,30.3,29.55,ENE,70,32.2,32.2,88,0.10,RA,,0.13,WeatherDisplay:10.37,2013-02-26 11:40:00,
2013-02-26 05:45:00,33.5,30.6,29.54,East,82,28.8,28.8,89,0.12,RA,,0.14,WeatherDisplay:10.37,2013-02-26 11:45:00,
2013-02-26 05:50:00,33.4,30.5,29.54,ENE,76,32.2,32.2,89,0.13,RA,,0.15,WeatherDisplay:10.37,2013-02-26 11:50:00,
2013-02-26 05:55:00,33.4,30.5,29.53,ENE,69,21.9,21.9,89,0.13,RA,,0.16,WeatherDisplay:10.37,2013-02-26 11:55:00,
2013-02-26 06:00:00,33.3,30.7,29.53,NE,42,26.5,26.5,90,0.13,RA,,0.17,WeatherDisplay:10.37,2013-02-26 12:00:00,
2013-02-26 06:05:00,33.3,30.7,29.52,ENE,71,21.9,21.9,90,0.13,RA,,0.18,WeatherDisplay:10.37,2013-02-26 12:05:00,
2013-02-26 06:10:00,33.2,30.6,29.51,East,84,26.5,26.5,90,0.14,RA,,0.20,WeatherDisplay:10.37,2013-02-26 12:10:00,
2013-02-26 06:15:00,33.2,30.6,29.52,East,84,26.5,26.5,90,0.13,RA,,0.21,WeatherDisplay:10.37,2013-02-26 12:15:00,
2013-02-26 06:20:00,33.2,30.6,29.52,ENE,71,25.3,25.3,90,0.14,RA,,0.22,WeatherDisplay:10.37,2013-02-26 12:20:00,
2013-02-26 06:25:00,33.2,30.6,29.50,East,93,24.2,24.2,90,0.15,RA,,0.24,WeatherDisplay:10.37,2013-02-26 12:25:00,
2013-02-26 06:31:00,33.1,30.8,29.52,ENE,75,18.0,29.0,91,0.01,RA,,0.26,WeatherDisplay:10.37,2013-02-26 12:31:00,
2013-02-26 06:36:00,33.1,30.8,29.52,ENE,68,25.3,25.3,91,0.16,RA,,0.28,WeatherDisplay:10.37,2013-02-26 12:36:00,
2013-02-26 06:41:00,33.1,30.8,29.50,ENE,63,28.8,28.8,91,0.17,RA,,0.30,WeatherDisplay:10.37,2013-02-26 12:41:00,
2013-02-26 06:46:00,33.1,30.8,29.50,East,80,27.6,27.6,91,0.18,RA,,0.32,WeatherDisplay:10.37,2013-02-26 12:46:00,
2013-02-26 06:51:00,33.1,30.8,29.49,ENE,72,23.0,23.0,91,0.20,RA,,0.35,WeatherDisplay:10.37,2013-02-26 12:51:00,
2013-02-26 06:55:00,33.2,31.1,29.48,ENE,69,33.4,33.4,92,0.21,RA,,0.36,WeatherDisplay:10.37,2013-02-26 12:55:00,
2013-02-26 07:01:00,33.3,31.2,29.49,ENE,78,25.3,25.3,92,0.19,RA,,0.36,WeatherDisplay:10.37,2013-02-26 13:01:00,
2013-02-26 07:06:00,33.4,31.3,29.47,NNE,31,26.5,26.5,92,0.19,RA,,0.37,WeatherDisplay:10.37,2013-02-26 13:06:00,
2013-02-26 07:11:00,33.5,31.4,29.46,ENE,59,25.3,25.3,92,0.18,RA,,0.38,WeatherDisplay:10.37,2013-02-26 13:11:00,
2013-02-26 07:16:00,33.7,31.6,29.46,NNE,22,34.5,34.5,92,0.17,RA,,0.38,WeatherDisplay:10.37,2013-02-26 13:16:00,
2013-02-26 07:21:00,33.7,31.6,29.46,ENE,76,16.1,16.1,92,0.17,RA,,0.39,WeatherDisplay:10.37,2013-02-26 13:21:00,
2013-02-26 07:26:00,33.7,31.6,29.47,ENE,65,20.7,20.7,92,0.16,RA,,0.40,WeatherDisplay:10.37,2013-02-26 13:26:00,
2013-02-26 07:31:00,33.7,31.6,29.47,East,80,21.9,21.9,92,0.16,RA,,0.41,WeatherDisplay:10.37,2013-02-26 13:31:00,
2013-02-26 07:36:00,33.6,31.5,29.47,ENE,62,23.0,23.0,92,0.16,RA,,0.43,WeatherDisplay:10.37,2013-02-26 13:36:00,
2013-02-26 07:41:00,33.5,31.4,29.47,ENE,66,15.0,23.0,92,0.00,RA,,0.44,WeatherDisplay:10.37,2013-02-26 13:41:00,
2013-02-26 07:46:00,33.5,31.4,29.46,ENE,76,24.0,24.0,92,0.16,RA,,0.47,WeatherDisplay:10.37,2013-02-26 13:46:00,
2013-02-26 07:51:00,33.5,31.4,29.46,East,92,20.7,20.7,92,0.15,RA,,0.49,WeatherDisplay:10.37,2013-02-26 13:51:00,
2013-02-26 07:56:00,33.5,31.4,29.47,ENE,63,33.4,33.4,92,0.14,RA,,0.50,WeatherDisplay:10.37,2013-02-26 13:56:00,
2013-02-26 08:01:00,33.5,31.4,29.47,ENE,76,27.6,27.6,92,0.15,RA,,0.51,WeatherDisplay:10.37,2013-02-26 14:01:00,
2013-02-26 08:06:00,33.5,31.4,29.47,ENE,75,20.7,20.7,92,0.15,RA,,0.52,WeatherDisplay:10.37,2013-02-26 14:06:00,
2013-02-26 08:11:00,33.4,31.3,29.47,East,83,24.2,24.2,92,0.14,RA,,0.52,WeatherDisplay:10.37,2013-02-26 14:11:00,
2013-02-26 08:16:00,33.4,31.3,29.47,ENE,78,20.7,20.7,92,0.15,RA,,0.53,WeatherDisplay:10.37,2013-02-26 14:16:00,
2013-02-26 08:21:00,33.4,31.3,29.47,ENE,71,17.3,17.3,92,0.14,RA,,0.53,WeatherDisplay:10.37,2013-02-26 14:21:00,
2013-02-26 08:26:00,33.4,31.3,29.47,ENE,70,20.7,20.7,92,0.14,RA,,0.54,WeatherDisplay:10.37,2013-02-26 14:26:00,
2013-02-26 08:31:00,33.3,31.2,29.47,ENE,60,25.0,25.0,92,0.14,RA,,0.55,WeatherDisplay:10.37,2013-02-26 14:31:00,
2013-02-26 08:36:00,33.3,31.5,29.46,ENE,58,21.0,21.0,93,0.14,RA,,0.56,WeatherDisplay:10.37,2013-02-26 14:36:00,
2013-02-26 08:41:00,33.3,31.5,29.47,ENE,62,26.5,26.5,93,0.13,RA,,0.57,WeatherDisplay:10.37,2013-02-26 14:41:00,
2013-02-26 08:46:00,33.3,31.5,29.46,NE,55,15.0,15.0,93,0.11,RA,,0.58,WeatherDisplay:10.37,2013-02-26 14:46:00,
2013-02-26 08:51:00,33.3,31.5,29.45,East,79,19.6,19.6,93,0.11,RA,,0.59,WeatherDisplay:10.37,2013-02-26 14:51:00,
2013-02-26 08:56:00,33.4,31.6,29.45,East,84,19.6,21.4,93,0.10,RA,,0.60,WeatherDisplay:10.37,2013-02-26 14:56:00,
2013-02-26 09:01:00,33.5,31.7,29.45,East,79,21.9,21.9,93,0.10,RA,,0.61,WeatherDisplay:10.37,2013-02-26 15:01:00,
2013-02-26 09:06:00,33.6,31.8,29.45,ENE,71,19.6,19.6,93,0.11,RA,,0.62,WeatherDisplay:10.37,2013-02-26 15:06:00,
2013-02-26 09:11:00,33.6,31.8,29.44,East,81,16.1,16.1,93,0.10,RA,,0.62,WeatherDisplay:10.37,2013-02-26 15:11:00,
2013-02-26 09:16:00,33.6,31.8,29.44,East,101,24.2,24.2,93,0.09,,,0.62,WeatherDisplay:10.37,2013-02-26 15:16:00,
2013-02-26 09:21:00,33.6,31.8,29.44,ENE,65,21.9,21.9,93,0.10,RA,,0.63,WeatherDisplay:10.37,2013-02-26 15:21:00,
2013-02-26 09:26:00,33.6,31.8,29.44,ENE,62,19.6,19.6,93,0.09,RA,,0.63,WeatherDisplay:10.37,2013-02-26 15:26:00,
2013-02-26 09:31:00,33.6,31.8,29.44,ENE,72,18.4,18.4,93,0.10,RA,,0.64,WeatherDisplay:10.37,2013-02-26 15:31:00,
2013-02-26 09:36:00,33.6,31.8,29.44,ENE,77,22.0,22.0,93,0.08,RA,,0.64,WeatherDisplay:10.37,2013-02-26 15:36:00,
2013-02-26 09:41:00,33.6,31.8,29.44,ENE,65,25.0,25.0,93,0.07,CLR,,0.64,WeatherDisplay:10.37,2013-02-26 15:41:00,
2013-02-26 09:46:00,33.6,31.8,29.44,ENE,76,23.0,23.0,93,0.07,RA,,0.65,WeatherDisplay:10.37,2013-02-26 15:46:00,
2013-02-26 09:51:00,33.6,31.5,29.43,East,93,20.7,20.7,92,0.06,RA,,0.65,WeatherDisplay:10.37,2013-02-26 15:51:00,
2013-02-26 09:56:00,33.6,31.5,29.43,East,80,21.9,21.9,92,0.06,RA,,0.66,WeatherDisplay:10.37,2013-02-26 15:56:00,
2013-02-26 10:01:00,33.5,31.4,29.43,ENE,69,21.0,21.0,92,0.05,RA,,0.66,WeatherDisplay:10.37,2013-02-26 16:01:00,
2013-02-26 10:06:00,33.6,31.5,29.43,NE,38,26.5,26.5,92,0.06,RA,,0.67,WeatherDisplay:10.37,2013-02-26 16:06:00,
2013-02-26 10:11:00,33.6,31.5,29.42,ENE,69,24.2,24.2,92,0.05,RA,,0.68,WeatherDisplay:10.37,2013-02-26 16:11:00,
2013-02-26 10:16:00,33.6,31.8,29.42,East,86,26.5,26.5,93,0.06,RA,,0.68,WeatherDisplay:10.37,2013-02-26 16:16:00,
2013-02-26 10:21:00,33.6,31.5,29.42,ENE,59,22.0,22.0,92,0.05,RA,,0.68,WeatherDisplay:10.37,2013-02-26 16:21:00,
2013-02-26 10:26:00,33.7,31.9,29.42,East,83,18.4,18.4,93,0.06,RA,,0.69,WeatherDisplay:10.37,2013-02-26 16:26:00,
2013-02-26 10:31:00,33.6,31.8,29.41,ENE,63,21.0,21.0,93,0.05,RA,,0.69,WeatherDisplay:10.37,2013-02-26 16:31:00,
2013-02-26 10:36:00,33.7,31.9,29.41,East,85,19.6,19.6,93,0.06,RA,,0.70,WeatherDisplay:10.37,2013-02-26 16:36:00,
2013-02-26 10:41:00,33.7,31.9,29.40,East,82,21.9,21.9,93,0.06,RA,,0.70,WeatherDisplay:10.37,2013-02-26 16:41:00,
2013-02-26 10:46:00,33.7,31.9,29.40,ENE,69,20.7,20.7,93,0.05,CLR,,0.70,WeatherDisplay:10.37,2013-02-26 16:46:00,
2013-02-26 10:51:00,33.7,31.9,29.40,ENE,60,19.6,19.6,93,0.05,CLR,,0.70,WeatherDisplay:10.37,2013-02-26 16:51:00,
2013-02-26 10:56:00,33.8,32.0,29.39,ENE,75,23.0,23.0,93,0.04,CLR,,0.70,WeatherDisplay:10.37,2013-02-26 16:56:00,
2013-02-26 11:01:00,33.9,32.1,29.40,ENE,71,19.6,19.6,93,0.04,CLR,,0.70,WeatherDisplay:10.37,2013-02-26 17:01:00,
2013-02-26 11:06:00,34.0,32.2,29.40,ENE,70,18.4,18.4,93,0.04,RA,,0.71,WeatherDisplay:10.37,2013-02-26 17:06:00,
2013-02-26 11:11:00,34.1,32.3,29.39,ENE,61,13.8,13.8,93,0.04,RA,,0.71,WeatherDisplay:10.37,2013-02-26 17:11:00,
2013-02-26 11:16:00,34.1,32.3,29.39,ENE,71,25.3,25.3,93,0.03,CLR,,0.71,WeatherDisplay:10.37,2013-02-26 17:16:00,
2013-02-26 11:21:00,34.1,32.3,29.39,ENE,78,18.4,18.4,93,0.03,CLR,,0.71,WeatherDisplay:10.37,2013-02-26 17:21:00,
2013-02-26 11:26:00,34.1,32.3,29.38,East,86,23.0,23.0,93,0.02,CLR,,0.71,WeatherDisplay:10.37,2013-02-26 17:26:00,
2013-02-26 11:31:00,34.1,32.3,29.38,ENE,61,20.7,20.7,93,0.02,CLR,,0.71,WeatherDisplay:10.37,2013-02-26 17:31:00,
2013-02-26 11:36:00,34.2,32.4,29.37,ENE,67,17.3,17.3,93,0.01,CLR,,0.71,WeatherDisplay:10.37,2013-02-26 17:36:00,
2013-02-26 11:41:00,34.2,32.4,29.37,ENE,61,17.3,17.3,93,0.01,CLR,,0.71,WeatherDisplay:10.37,2013-02-26 17:41:00,
2013-02-26 11:46:00,34.2,32.4,29.37,ENE,73,17.3,17.3,93,0.01,CLR,,0.71,WeatherDisplay:10.37,2013-02-26 17:46:00,
2013-02-26 11:51:00,34.3,32.5,29.37,East,83,20.7,20.7,93,0.01,CLR,,0.71,WeatherDisplay:10.37,2013-02-26 17:51:00,
2013-02-26 11:56:00,34.4,32.6,29.37,ENE,65,20.0,20.0,93,0.01,CLR,,0.71,WeatherDisplay:10.37,2013-02-26 17:56:00,
2013-02-26 12:01:00,34.5,32.7,29.37,ENE,65,15.0,15.0,93,0.01,CLR,,0.71,WeatherDisplay:10.37,2013-02-26 18:01:00,
2013-02-26 12:06:00,34.5,32.7,29.37,East,85,19.6,19.6,93,0.00,CLR,,0.71,WeatherDisplay:10.37,2013-02-26 18:06:00,
2013-02-26 12:11:00,34.5,32.7,29.37,East,84,19.6,19.6,93,0.00,CLR,,0.71,WeatherDisplay:10.37,2013-02-26 18:11:00,
2013-02-26 12:16:00,34.6,32.8,29.37,ENE,67,19.6,19.6,93,0.00,CLR,,0.71,WeatherDisplay:10.37,2013-02-26 18:16:00,
2013-02-26 12:21:00,34.6,32.8,29.37,ENE,71,18.4,18.4,93,0.00,CLR,,0.71,WeatherDisplay:10.37,2013-02-26 18:21:00,
2013-02-26 12:26:00,34.7,32.9,29.37,ENE,69,13.8,13.8,93,0.00,CLR,,0.71,WeatherDisplay:10.37,2013-02-26 18:26:00,
2013-02-26 12:31:00,34.7,32.9,29.37,East,80,15.0,15.0,93,0.00,CLR,,0.71,WeatherDisplay:10.37,2013-02-26 18:31:00,
2013-02-26 12:36:00,34.7,32.9,29.37,ENE,68,13.8,13.8,93,0.00,CLR,,0.71,WeatherDisplay:10.37,2013-02-26 18:36:00,
2013-02-26 12:41:00,34.8,33.0,29.37,East,82,8.1,8.1,93,0.00,CLR,,0.71,WeatherDisplay:10.37,2013-02-26 18:41:00,
2013-02-26 12:46:00,34.9,33.1,29.36,ENE,64,11.5,12.3,93,0.00,CLR,,0.71,WeatherDisplay:10.37,2013-02-26 18:46:00,
2013-02-26 12:51:00,34.9,33.1,29.36,East,82,11.5,11.5,93,0.00,CLR,,0.71,WeatherDisplay:10.37,2013-02-26 18:51:00,
2013-02-26 12:56:00,34.9,33.1,29.36,East,80,12.7,12.7,93,0.00,CLR,,0.71,WeatherDisplay:10.37,2013-02-26 18:56:00,
2013-02-26 13:01:00,35.0,33.2,29.36,ENE,65,15.0,15.0,93,0.00,CLR,,0.71,WeatherDisplay:10.37,2013-02-26 19:01:00,
2013-02-26 13:06:00,35.0,33.2,29.36,ENE,78,13.0,13.0,93,0.01,RA,,0.72,WeatherDisplay:10.37,2013-02-26 19:06:00,
2013-02-26 13:11:00,35.1,33.3,29.35,ENE,71,11.5,11.5,93,0.01,RA,,0.72,WeatherDisplay:10.37,2013-02-26 19:11:00,
2013-02-26 13:16:00,35.2,33.4,29.35,ENE,67,16.1,16.1,93,0.01,CLR,,0.72,WeatherDisplay:10.37,2013-02-26 19:16:00,
2013-02-26 13:21:00,35.3,33.5,29.35,ENE,74,11.5,11.5,93,0.01,CLR,,0.72,WeatherDisplay:10.37,2013-02-26 19:21:00,
2013-02-26 13:26:00,35.3,33.5,29.35,ENE,59,6.9,6.9,93,0.01,CLR,,0.72,WeatherDisplay:10.37,2013-02-26 19:26:00,
2013-02-26 13:31:00,35.4,33.6,29.36,ENE,57,9.2,9.2,93,0.01,CLR,,0.72,WeatherDisplay:10.37,2013-02-26 19:31:00,
2013-02-26 13:36:00,35.5,33.9,29.35,ENE,73,6.9,6.9,94,0.01,CLR,,0.72,WeatherDisplay:10.37,2013-02-26 19:36:00,
2013-02-26 13:41:00,35.6,34.0,29.35,ENE,76,11.5,11.5,94,0.01,CLR,,0.72,WeatherDisplay:10.37,2013-02-26 19:41:00,
2013-02-26 13:46:00,35.5,33.9,29.35,ENE,68,11.5,11.5,94,0.01,CLR,,0.72,WeatherDisplay:10.37,2013-02-26 19:46:00,
2013-02-26 13:51:00,35.6,33.8,29.35,ENE,68,13.0,13.0,93,0.01,CLR,,0.72,WeatherDisplay:10.37,2013-02-26 19:51:00,
2013-02-26 13:56:00,35.8,34.2,29.35,ENE,78,9.2,9.2,94,0.01,CLR,,0.72,WeatherDisplay:10.37,2013-02-26 19:56:00,
2013-02-26 14:01:00,35.9,34.3,29.35,ENE,73,12.7,12.7,94,0.01,CLR,,0.72,WeatherDisplay:10.37,2013-02-26 20:01:00,
2013-02-26 14:06:00,35.8,34.0,29.35,ENE,65,10.4,10.4,93,0.00,CLR,,0.72,WeatherDisplay:10.37,2013-02-26 20:06:00,
2013-02-26 14:11:00,35.9,34.1,29.34,ENE,78,9.2,9.2,93,0.00,CLR,,0.72,WeatherDisplay:10.37,2013-02-26 20:11:00,
2013-02-26 14:16:00,35.9,34.1,29.34,NE,39,11.5,11.5,93,0.01,RA,,0.73,WeatherDisplay:10.37,2013-02-26 20:16:00,
2013-02-26 14:21:00,35.9,34.1,29.34,ENE,57,12.0,12.0,93,0.01,RA,,0.73,WeatherDisplay:10.37,2013-02-26 20:21:00,
2013-02-26 14:26:00,35.7,33.9,29.34,NE,48,11.5,11.5,93,0.02,RA,,0.74,WeatherDisplay:10.37,2013-02-26 20:26:00,
2013-02-26 14:31:00,35.8,34.2,29.33,NE,43,10.0,15.0,94,0.00,RA,,0.74,WeatherDisplay:10.37,2013-02-26 20:31:00,
2013-02-26 14:36:00,35.9,34.3,29.34,NE,54,7.0,7.0,94,0.02,CLR,,0.74,WeatherDisplay:10.37,2013-02-26 20:36:00,
2013-02-26 14:41:00,36.0,34.4,29.35,ENE,66,11.5,11.5,94,0.02,CLR,,0.74,WeatherDisplay:10.37,2013-02-26 20:41:00,
2013-02-26 14:46:00,36.1,34.5,29.36,ENE,76,10.4,10.4,94,0.02,CLR,,0.74,WeatherDisplay:10.37,2013-02-26 20:46:00,
2013-02-26 14:52:00,36.1,34.5,29.36,ENE,69,10.4,10.4,94,0.02,CLR,,0.74,WeatherDisplay:10.37,2013-02-26 20:52:00,
2013-02-26 14:57:00,36.2,34.6,29.36,ENE,61,11.5,11.5,94,0.02,CLR,,0.74,WeatherDisplay:10.37,2013-02-26 20:57:00,
2013-02-26 15:02:00,36.3,34.7,29.36,ENE,77,10.4,10.4,94,0.02,CLR,,0.74,WeatherDisplay:10.37,2013-02-26 21:02:00,
2013-02-26 15:07:00,36.4,34.8,29.36,NE,47,5.8,5.8,94,0.02,CLR,,0.74,WeatherDisplay:10.37,2013-02-26 21:07:00,
2013-02-26 15:12:00,36.5,34.9,29.36,NE,39,6.9,6.9,94,0.02,CLR,,0.74,WeatherDisplay:10.37,2013-02-26 21:12:00,
2013-02-26 15:17:00,36.5,34.9,29.36,ENE,69,11.5,11.5,94,0.01,CLR,,0.74,WeatherDisplay:10.37,2013-02-26 21:17:00,
2013-02-26 15:22:00,36.6,35.0,29.36,ENE,70,6.0,6.0,94,0.01,CLR,,0.74,WeatherDisplay:10.37,2013-02-26 21:22:00,
2013-02-26 15:27:00,36.6,34.8,29.36,ENE,61,6.9,6.9,93,0.00,CLR,,0.74,WeatherDisplay:10.37,2013-02-26 21:27:00,
2013-02-26 15:32:00,36.6,34.8,29.36,NE,45,9.2,9.2,93,0.00,CLR,,0.74,WeatherDisplay:10.37,2013-02-26 21:32:00,
2013-02-26 15:37:00,36.5,34.7,29.37,NE,43,8.1,8.1,93,0.00,CLR,,0.74,WeatherDisplay:10.37,2013-02-26 21:37:00,
2013-02-26 15:42:00,36.4,34.6,29.37,NNE,30,9.2,9.2,93,0.00,CLR,,0.74,WeatherDisplay:10.37,2013-02-26 21:42:00,
2013-02-26 15:47:00,36.4,34.6,29.37,NE,38,11.0,11.0,93,0.00,CLR,,0.74,WeatherDisplay:10.37,2013-02-26 21:47:00,
2013-02-26 15:52:00,36.4,34.6,29.36,NE,49,5.8,5.8,93,0.00,CLR,,0.74,WeatherDisplay:10.37,2013-02-26 21:52:00,
2013-02-26 15:57:00,36.4,34.6,29.37,NE,42,9.2,9.2,93,0.00,CLR,,0.74,WeatherDisplay:10.37,2013-02-26 21:57:00,
2013-02-26 16:02:00,36.3,34.5,29.36,NE,44,10.4,10.4,93,0.00,CLR,,0.74,WeatherDisplay:10.37,2013-02-26 22:02:00,
2013-02-26 16:07:00,36.2,34.6,29.36,NE,35,10.4,10.4,94,0.00,CLR,,0.74,WeatherDisplay:10.37,2013-02-26 22:07:00,
2013-02-26 16:12:00,36.2,34.6,29.36,NE,40,5.8,5.8,94,0.00,CLR,,0.74,WeatherDisplay:10.37,2013-02-26 22:12:00,
2013-02-26 16:17:00,36.2,34.6,29.37,NE,40,8.1,8.1,94,0.00,CLR,,0.74,WeatherDisplay:10.37,2013-02-26 22:17:00,
2013-02-26 16:22:00,36.2,34.6,29.37,NE,39,6.0,6.0,94,0.00,CLR,,0.74,WeatherDisplay:10.37,2013-02-26 22:22:00,
2013-02-26 16:27:00,36.2,34.6,29.37,NE,38,5.0,5.0,94,0.00,CLR,,0.74,WeatherDisplay:10.37,2013-02-26 22:27:00,
2013-02-26 16:32:00,36.1,34.5,29.37,NE,40,5.8,5.8,94,0.00,CLR,,0.74,WeatherDisplay:10.37,2013-02-26 22:32:00,
2013-02-26 16:37:00,36.1,34.5,29.37,NE,37,5.8,5.8,94,0.00,CLR,,0.74,WeatherDisplay:10.37,2013-02-26 22:37:00,
2013-02-26 16:42:00,36.2,34.6,29.37,NE,37,4.6,4.6,94,0.00,CLR,,0.74,WeatherDisplay:10.37,2013-02-26 22:42:00,
2013-02-26 16:47:00,36.1,34.5,29.37,NE,38,4.6,4.6,94,0.00,CLR,,0.74,WeatherDisplay:10.37,2013-02-26 22:47:00,
2013-02-26 16:52:00,36.1,34.5,29.38,NE,37,3.5,3.5,94,0.00,CLR,,0.74,WeatherDisplay:10.37,2013-02-26 22:52:00,
2013-02-26 16:57:00,36.1,34.5,29.38,NE,37,5.0,5.0,94,0.00,CLR,,0.74,WeatherDisplay:10.37,2013-02-26 22:57:00,
2013-02-26 17:02:00,36.1,34.5,29.39,NE,38,7.0,7.0,94,0.00,CLR,,0.74,WeatherDisplay:10.37,2013-02-26 23:02:00,
2013-02-26 17:07:00,36.1,34.5,29.39,NE,37,5.8,5.8,94,0.00,CLR,,0.74,WeatherDisplay:10.37,2013-02-26 23:07:00,
2013-02-26 17:12:00,36.0,34.4,29.39,NE,36,5.8,5.8,94,0.00,CLR,,0.74,WeatherDisplay:10.37,2013-02-26 23:12:00,
2013-02-26 17:17:00,36.0,34.4,29.39,NE,36,5.8,5.8,94,0.00,CLR,,0.74,WeatherDisplay:10.37,2013-02-26 23:17:00,
2013-02-26 17:22:00,35.9,34.3,29.39,NE,38,6.9,6.9,94,0.00,CLR,,0.74,WeatherDisplay:10.37,2013-02-26 23:22:00,
2013-02-26 17:27:00,35.9,34.3,29.39,NE,36,11.5,11.5,94,0.00,CLR,,0.74,WeatherDisplay:10.37,2013-02-26 23:27:00,
2013-02-26 17:32:00,35.9,34.3,29.39,NE,38,6.9,6.9,94,0.00,CLR,,0.74,WeatherDisplay:10.37,2013-02-26 23:32:00,
2013-02-26 17:37:00,35.8,34.2,29.39,NE,37,5.8,5.8,94,0.00,CLR,,0.74,WeatherDisplay:10.37,2013-02-26 23:37:00,
2013-02-26 17:42:00,35.8,34.2,29.39,NE,36,8.1,8.1,94,0.00,CLR,,0.74,WeatherDisplay:10.37,2013-02-26 23:42:00,
2013-02-26 17:47:00,35.8,34.2,29.39,NE,34,5.8,5.8,94,0.00,CLR,,0.74,WeatherDisplay:10.37,2013-02-26 23:47:00,
2013-02-26 17:52:00,35.8,34.2,29.39,NNE,22,6.9,6.9,94,0.00,CLR,,0.74,WeatherDisplay:10.37,2013-02-26 23:52:00,
2013-02-26 17:57:00,35.8,34.2,29.40,NNE,22,3.5,3.5,94,0.00,CLR,,0.74,WeatherDisplay:10.37,2013-02-26 23:57:00,
2013-02-26 18:02:00,35.8,34.2,29.40,NNE,22,3.5,3.5,94,0.00,CLR,,0.74,WeatherDisplay:10.37,2013-02-27 00:02:00,
2013-02-26 18:07:00,35.8,34.2,29.40,NNE,22,4.0,4.0,94,0.00,CLR,,0.74,WeatherDisplay:10.37,2013-02-27 00:07:00,
2013-02-26 18:12:00,35.7,34.1,29.40,NNE,22,3.5,3.5,94,0.00,CLR,,0.74,WeatherDisplay:10.37,2013-02-27 00:12:00,
2013-02-26 18:17:00,35.6,34.0,29.40,NNE,22,3.5,3.5,94,0.00,CLR,,0.74,WeatherDisplay:10.37,2013-02-27 00:17:00,
2013-02-26 18:22:00,35.6,34.0,29.41,NNE,21,3.5,3.5,94,0.00,CLR,,0.74,WeatherDisplay:10.37,2013-02-27 00:22:00,
2013-02-26 18:27:00,35.7,34.1,29.41,NNE,22,4.6,4.6,94,0.00,CLR,,0.74,WeatherDisplay:10.37,2013-02-27 00:27:00,
2013-02-26 18:32:00,35.7,34.1,29.41,NNE,22,3.5,3.5,94,0.00,CLR,,0.74,WeatherDisplay:10.37,2013-02-27 00:32:00,
2013-02-26 18:37:00,35.7,34.4,29.41,NNE,22,3.5,3.5,95,0.00,CLR,,0.74,WeatherDisplay:10.37,2013-02-27 00:37:00,
2013-02-26 18:42:00,35.7,34.4,29.41,NNE,22,3.5,3.5,95,0.00,CLR,,0.74,WeatherDisplay:10.37,2013-02-27 00:42:00,
2013-02-26 18:47:00,35.8,34.5,29.41,NNE,22,1.2,1.2,95,0.00,CLR,,0.74,WeatherDisplay:10.37,2013-02-27 00:47:00,
2013-02-26 18:52:00,35.8,34.5,29.41,NNE,21,0.0,0.0,95,0.00,CLR,,0.74,WeatherDisplay:10.37,2013-02-27 00:52:00,
2013-02-26 18:57:00,35.8,34.5,29.41,NNE,22,0.0,0.0,95,0.00,CLR,,0.74,WeatherDisplay:10.37,2013-02-27 00:57:00,
2013-02-26 19:02:00,35.8,34.5,29.41,NNE,22,0.0,0.0,95,0.00,CLR,,0.74,WeatherDisplay:10.37,2013-02-27 01:02:00,
2013-02-26 19:07:00,35.7,34.4,29.42,NNE,22,3.5,3.5,95,0.00,CLR,,0.74,WeatherDisplay:10.37,2013-02-27 01:07:00,
2013-02-26 19:12:00,35.7,34.4,29.42,NNE,21,2.3,2.3,95,0.01,RA,,0.75,WeatherDisplay:10.37,2013-02-27 01:12:00,
2013-02-26 19:17:00,35.7,34.4,29.42,NNE,21,3.5,3.5,95,0.01,RA,,0.75,WeatherDisplay:10.37,2013-02-27 01:17:00,
2013-02-26 19:22:00,35.6,34.3,29.42,NNE,22,3.5,3.5,95,0.01,,,0.75,WeatherDisplay:10.37,2013-02-27 01:22:00,
2013-02-26 19:27:00,35.4,34.1,29.42,NNE,22,4.6,4.6,95,0.02,RA,,0.76,WeatherDisplay:10.37,2013-02-27 01:27:00,
2013-02-26 19:32:00,35.3,33.7,29.42,NNE,22,4.6,4.6,94,0.02,RA,,0.76,WeatherDisplay:10.37,2013-02-27 01:32:00,
2013-02-26 19:37:00,35.3,34.0,29.42,North,9,6.0,6.0,95,0.02,,,0.76,WeatherDisplay:10.37,2013-02-27 01:37:00,
2013-02-26 19:42:00,35.2,33.9,29.42,North,9,3.5,3.5,95,0.02,CLR,,0.76,WeatherDisplay:10.37,2013-02-27 01:42:00,
2013-02-26 19:47:00,35.2,33.9,29.42,North,5,3.5,3.5,95,0.02,CLR,,0.76,WeatherDisplay:10.37,2013-02-27 01:47:00,
2013-02-26 19:52:00,35.2,33.9,29.42,North,9,4.0,4.0,95,0.02,CLR,,0.76,WeatherDisplay:10.37,2013-02-27 01:52:00,
2013-02-26 19:57:00,35.2,33.9,29.42,North,5,5.8,5.8,95,0.02,CLR,,0.76,WeatherDisplay:10.37,2013-02-27 01:57:00,
2013-02-26 20:02:00,35.2,33.9,29.42,North,5,3.5,3.5,95,0.02,CLR,,0.76,WeatherDisplay:10.37,2013-02-27 02:02:00,
2013-02-26 20:07:00,35.0,33.7,29.42,North,5,4.6,4.6,95,0.02,CLR,,0.76,WeatherDisplay:10.37,2013-02-27 02:07:00,
2013-02-26 20:12:00,34.9,33.6,29.42,North,9,3.5,3.5,95,0.01,CLR,,0.76,WeatherDisplay:10.37,2013-02-27 02:12:00,
2013-02-26 20:17:00,34.8,33.5,29.43,North,5,4.0,4.0,95,0.01,CLR,,0.76,WeatherDisplay:10.37,2013-02-27 02:17:00,
2013-02-26 20:24:00,34.8,33.5,29.43,North,5,3.5,3.5,95,0.01,CLR,,0.76,WeatherDisplay:10.37,2013-02-27 02:24:00,
2013-02-26 20:29:00,34.8,33.5,29.42,North,5,4.0,4.0,95,0.00,CLR,,0.76,WeatherDisplay:10.37,2013-02-27 02:29:00,
2013-02-26 20:34:00,34.8,33.5,29.42,North,5,3.5,3.5,95,0.00,CLR,,0.76,WeatherDisplay:10.37,2013-02-27 02:34:00,
2013-02-26 20:39:00,34.8,33.5,29.43,North,5,3.5,3.5,95,0.00,CLR,,0.76,WeatherDisplay:10.37,2013-02-27 02:39:00,
2013-02-26 20:44:00,34.7,33.4,29.43,North,9,3.5,3.5,95,0.00,CLR,,0.76,WeatherDisplay:10.37,2013-02-27 02:44:00,
2013-02-26 20:49:00,34.7,33.4,29.43,North,5,3.5,3.5,95,0.00,CLR,,0.76,WeatherDisplay:10.37,2013-02-27 02:49:00,
2013-02-26 20:54:00,34.7,33.4,29.42,North,9,1.2,1.2,95,0.00,CLR,,0.76,WeatherDisplay:10.37,2013-02-27 02:54:00,
2013-02-26 20:59:00,34.7,33.4,29.42,North,5,2.3,2.3,95,0.00,CLR,,0.76,WeatherDisplay:10.37,2013-02-27 02:59:00,
2013-02-26 21:04:00,34.8,33.5,29.42,North,5,3.5,3.5,95,0.00,CLR,,0.76,WeatherDisplay:10.37,2013-02-27 03:04:00,
2013-02-26 21:09:00,34.8,33.5,29.42,North,5,3.5,3.5,95,0.00,CLR,,0.76,WeatherDisplay:10.37,2013-02-27 03:09:00,
2013-02-26 21:14:00,34.7,33.4,29.42,North,5,4.6,4.6,95,0.00,CLR,,0.76,WeatherDisplay:10.37,2013-02-27 03:14:00,
2013-02-26 21:19:00,34.8,33.5,29.42,North,5,3.5,3.5,95,0.00,CLR,,0.76,WeatherDisplay:10.37,2013-02-27 03:19:00,
2013-02-26 21:24:00,34.8,33.5,29.42,North,5,4.0,4.0,95,0.00,CLR,,0.76,WeatherDisplay:10.37,2013-02-27 03:24:00,
2013-02-26 21:29:00,34.8,33.5,29.42,North,350,3.5,3.5,95,0.00,CLR,,0.76,WeatherDisplay:10.37,2013-02-27 03:29:00,
2013-02-26 21:34:00,34.8,33.5,29.42,North,349,3.5,3.5,95,0.00,CLR,,0.76,WeatherDisplay:10.37,2013-02-27 03:34:00,
2013-02-26 21:39:00,34.8,33.5,29.43,NNW,348,0.0,0.0,95,0.00,CLR,,0.76,WeatherDisplay:10.37,2013-02-27 03:39:00,
2013-02-26 21:44:00,34.8,33.5,29.43,North,349,3.0,3.0,95,0.00,CLR,,0.76,WeatherDisplay:10.37,2013-02-27 03:44:00,
2013-02-26 21:49:00,34.7,33.4,29.44,NNW,348,4.0,4.0,95,0.00,CLR,,0.76,WeatherDisplay:10.37,2013-02-27 03:49:00,
2013-02-26 21:54:00,34.6,33.3,29.44,NNW,348,4.0,4.0,95,0.00,CLR,,0.76,WeatherDisplay:10.37,2013-02-27 03:54:00,
2013-02-26 21:59:00,34.6,33.3,29.43,NNW,348,3.5,3.5,95,0.00,CLR,,0.76,WeatherDisplay:10.37,2013-02-27 03:59:00,
2013-02-26 22:04:00,34.6,33.3,29.43,NNW,348,0.0,0.0,95,0.00,CLR,,0.76,WeatherDisplay:10.37,2013-02-27 04:04:00,
2013-02-26 22:09:00,34.6,33.3,29.44,NNW,348,1.2,0.0,95,0.00,CLR,,0.76,WeatherDisplay:10.37,2013-02-27 04:09:00,
2013-02-26 22:14:00,34.5,33.2,29.43,NNW,347,3.5,3.5,95,0.00,CLR,,0.76,WeatherDisplay:10.37,2013-02-27 04:14:00,
2013-02-26 22:19:00,34.4,33.1,29.44,NNW,348,4.6,4.6,95,0.00,CLR,,0.76,WeatherDisplay:10.37,2013-02-27 04:19:00,
2013-02-26 22:24:00,34.3,33.0,29.44,NNW,344,5.0,5.0,95,0.00,CLR,,0.76,WeatherDisplay:10.37,2013-02-27 04:24:00,
2013-02-26 22:30:00,34.2,32.9,29.44,NNW,333,5.8,5.8,95,0.00,CLR,,0.76,WeatherDisplay:10.37,2013-02-27 04:30:00,
2013-02-26 22:35:00,34.1,32.8,29.44,NW,325,3.5,3.5,95,0.00,CLR,,0.76,WeatherDisplay:10.37,2013-02-27 04:35:00,
2013-02-26 22:40:00,34.1,32.8,29.44,NW,324,4.6,4.6,95,0.00,CLR,,0.76,WeatherDisplay:10.37,2013-02-27 04:40:00,
2013-02-26 22:45:00,33.9,32.6,29.44,NW,323,6.0,6.0,95,0.00,CLR,,0.76,WeatherDisplay:10.37,2013-02-27 04:45:00,
2013-02-26 22:50:00,33.8,32.5,29.44,NW,321,5.0,5.0,95,0.00,CLR,,0.76,WeatherDisplay:10.37,2013-02-27 04:50:00,
2013-02-26 22:55:00,33.8,32.5,29.44,NW,321,5.8,5.8,95,0.00,CLR,,0.76,WeatherDisplay:10.37,2013-02-27 04:55:00,
2013-02-26 23:00:00,33.8,32.5,29.44,NW,320,4.6,4.6,95,0.00,CLR,,0.76,WeatherDisplay:10.37,2013-02-27 05:00:00,
2013-02-26 23:05:00,33.7,32.4,29.44,NW,321,5.0,5.0,95,0.00,CLR,,0.76,WeatherDisplay:10.37,2013-02-27 05:05:00,
2013-02-26 23:10:00,33.7,32.4,29.44,NW,319,4.6,4.6,95,0.00,CLR,,0.76,WeatherDisplay:10.37,2013-02-27 05:10:00,
2013-02-26 23:15:00,33.7,32.4,29.44,NW,319,3.5,3.5,95,0.00,CLR,,0.76,WeatherDisplay:10.37,2013-02-27 05:15:00,
2013-02-26 23:20:00,33.7,32.4,29.44,NW,319,1.2,1.2,95,0.00,CLR,,0.76,WeatherDisplay:10.37,2013-02-27 05:20:00,
2013-02-26 23:25:00,33.8,32.5,29.45,NW,319,2.3,2.3,95,0.00,CLR,,0.76,WeatherDisplay:10.37,2013-02-27 05:25:00,
2013-02-26 23:30:00,33.7,32.4,29.45,NW,319,4.6,4.6,95,0.00,CLR,,0.76,WeatherDisplay:10.37,2013-02-27 05:30:00,
2013-02-26 23:35:00,33.7,32.4,29.45,NW,319,4.6,4.6,95,0.00,CLR,,0.76,WeatherDisplay:10.37,2013-02-27 05:35:00,
2013-02-26 23:40:00,33.8,32.5,29.45,NW,319,3.5,3.5,95,0.00,CLR,,0.76,WeatherDisplay:10.37,2013-02-27 05:40:00,
2013-02-26 23:45:00,33.8,32.5,29.45,NW,319,4.0,4.0,95,0.00,CLR,,0.76,WeatherDisplay:10.37,2013-02-27 05:45:00,
2013-02-26 23:50:00,33.8,32.5,29.45,NW,319,3.5,3.5,95,0.01,RA,,0.77,WeatherDisplay:10.37,2013-02-27 05:50:00,
2013-02-26 23:55:00,33.8,32.5,29.46,NW,315,4.0,4.0,95,0.01,RA,,0.77,WeatherDisplay:10.37,2013-02-27 05:55:00,